Date String (YYYY-MM-DD hh:mm:ss) UTC,Instrument flags,absolute air pressure of the measurement (hPa),sample flow rate (lpm),inlet stack bypass flow (lpm),air temperature of the measurement (°C),ambient temperature measured by the external sensor (°C),aerosol sample conditioner tube jacket temperature (°C),OPC LED temperature (°C),internal box temperature (°C),relative humidity of the measurement (%),span deviation,mass concentration of particles derived from Lorenz-Mie calculation of OPC scattering (μg/m³),mass concentration of particles derived from Lorenz-Mie calculation of OPC scattering (μg/m³),mass concentration of particles derived from Lorenz-Mie calculation of OPC scattering (μg/m³)
DateTimeUTC,F1_M11,P_M11,Q1_M11,Q2_M11,T1_M11,T2_M11,T3_M11,T4_M11,T5_M11,U1_M11,ZSPAN_M11,X0_M11,X2_M11,X1_M11
2024-03-28 12:00:00,SystemResetWarning,0826.0,5.01,000.00,018.4,017.4,000.0,027.0,020.0,13.7,0000.0,0005.94,0002.03,0001.48
2024-03-28 12:01:00,SystemResetWarning,0826.1,4.99,000.00,018.4,017.4,000.0,027.0,020.0,14.6,0000.0,0005.74,0002.08,0001.48
2024-03-28 12:02:00,SystemResetWarning,0826.0,4.99,000.00,018.3,017.4,000.0,027.0,020.0,15.0,0000.0,0006.34,0002.10,0001.48
2024-03-28 12:03:00,SystemResetWarning,0825.9,5.00,000.00,018.3,017.4,000.0,027.0,020.0,14.8,0000.0,0006.44,0002.15,0001.49
2024-03-28 12:04:00,SystemResetWarning,0826.0,5.01,000.00,018.3,017.4,000.0,027.0,020.0,14.0,0000.0,0006.37,0002.16,0001.50
2024-03-28 12:05:00,SystemResetWarning,0825.9,5.00,000.00,018.3,017.4,000.0,027.0,020.0,13.7,0000.0,0006.19,0002.13,0001.50
2024-03-28 12:06:00,SystemResetWarning,0825.9,5.00,000.00,018.3,017.4,000.0,027.0,020.0,13.5,0000.0,0005.94,0002.08,0001.49
2024-03-28 12:07:00,SystemResetWarning,0825.9,4.99,000.00,018.3,017.3,000.0,027.0,020.0,13.6,0000.0,0005.48,0002.07,0001.48
2024-03-28 12:08:00,SystemResetWarning,0825.9,4.99,000.00,018.3,017.3,000.0,027.0,020.0,13.7,0000.0,0004.15,0002.06,0001.47
2024-03-28 12:09:00,SystemResetWarning,0826.0,5.00,000.00,018.3,017.3,000.0,027.0,020.0,13.7,0000.0,0004.05,0002.03,0001.46
2024-03-28 12:10:00,SystemResetWarning,0826.0,5.00,000.00,018.3,017.3,000.0,027.0,020.0,13.8,0000.0,0004.02,0002.01,0001.45
2024-03-28 12:11:00,SystemResetWarning,0826.1,5.01,000.00,018.3,017.3,000.0,027.0,020.0,13.6,0000.0,0004.04,0002.03,0001.45
2024-03-28 12:12:00,SystemResetWarning,0826.2,5.00,000.00,018.3,017.3,000.0,027.0,020.0,13.7,0000.0,0003.85,0002.01,0001.44
2024-03-28 12:13:00,SystemResetWarning,0826.1,5.01,000.00,018.3,017.3,000.0,027.0,020.0,13.7,0000.0,0003.09,0001.98,0001.43
2024-03-28 12:14:00,SystemResetWarning,0826.0,4.99,000.00,018.2,017.3,000.0,027.0,020.0,13.7,0000.0,0002.95,0001.93,0001.41
2024-03-28 12:15:00,SystemResetWarning,0826.0,5.00,000.00,018.2,017.3,000.0,027.0,020.0,13.7,0000.0,0002.95,0001.92,0001.40
2024-03-28 12:16:00,SystemResetWarning,0825.9,5.00,000.00,018.2,017.3,000.0,027.0,020.0,13.8,0000.0,0002.99,0001.91,0001.39
2024-03-28 12:17:00,SystemResetWarning,0825.9,5.00,000.00,018.2,017.3,000.0,026.9,020.0,13.8,0000.0,0003.02,0001.89,0001.38
2024-03-28 12:18:00,SystemResetWarning,0826.0,5.00,000.00,018.2,017.4,000.0,026.9,020.0,13.7,0000.0,0003.08,0001.92,0001.39
2024-03-28 12:19:00,SystemResetWarning,0826.0,5.00,000.00,018.2,017.4,000.0,026.9,020.0,13.7,0000.0,0003.36,0001.93,0001.39
2024-03-28 12:20:00,SystemResetWarning,0826.0,5.01,000.00,018.2,017.4,000.0,026.9,020.0,13.6,0000.0,0003.46,0001.95,0001.38
2024-03-28 12:21:00,SystemResetWarning,0826.0,5.01,000.00,018.2,017.4,000.0,026.9,020.0,13.7,0000.0,0003.63,0002.02,0001.37
2024-03-28 12:22:00,SystemResetWarning,0826.0,5.01,000.00,018.2,017.4,000.0,026.9,020.0,13.8,0000.0,0003.71,0002.05,0001.37
2024-03-28 12:23:00,SystemResetWarning,0826.0,4.99,000.00,018.2,017.4,000.0,026.9,020.0,13.7,0000.0,0003.61,0002.01,0001.38
2024-03-28 12:24:00,SystemResetWarning,0825.9,5.00,000.00,018.2,017.4,000.0,026.9,020.0,13.6,0000.0,0003.62,0002.02,0001.38
2024-03-28 12:25:00,SystemResetWarning,0825.9,5.00,000.00,018.2,017.4,000.0,026.9,020.0,13.7,0000.0,0003.69,0002.04,0001.38
2024-03-28 12:26:00,SystemResetWarning,0825.9,5.00,000.00,018.2,017.4,000.0,026.9,020.0,13.6,0000.0,0003.70,0002.05,0001.39
2024-03-28 12:27:00,SystemResetWarning,0825.9,5.01,000.00,018.2,017.4,000.0,026.9,020.0,13.6,0000.0,0003.75,0002.07,0001.40
2024-03-28 12:28:00,SystemResetWarning,0825.9,5.00,000.00,018.2,017.4,000.0,026.9,020.0,13.4,0000.0,0003.76,0002.09,0001.40
2024-03-28 12:29:00,SystemResetWarning,0826.0,5.01,000.00,018.2,017.4,000.0,026.9,020.0,13.4,0000.0,0003.81,0002.11,0001.40
2024-03-28 12:30:00,SystemResetWarning,0826.0,5.00,000.00,018.2,017.4,000.0,026.9,020.0,14.3,0000.0,0003.55,0002.10,0001.39
2024-03-28 12:31:00,SystemResetWarning,0826.0,5.00,000.00,018.2,017.4,000.0,026.9,020.0,14.1,0000.0,0003.60,0002.12,0001.39
2024-03-28 12:32:00,SystemResetWarning,0825.9,5.00,000.00,018.2,017.4,000.0,026.9,020.0,14.0,0000.0,0003.53,0002.08,0001.39
2024-03-28 12:33:00,SystemResetWarning,0825.9,4.99,000.00,018.2,017.4,000.0,026.9,020.0,13.9,0000.0,0003.37,0002.04,0001.40
2024-03-28 12:34:00,SystemResetWarning,0825.9,5.00,000.00,018.2,017.4,000.0,026.9,020.0,13.9,0000.0,0003.35,0002.04,0001.40
2024-03-28 12:35:00,SystemResetWarning,0825.9,5.00,000.00,018.2,017.4,000.0,026.9,020.0,13.7,0000.0,0003.32,0002.04,0001.41
2024-03-28 12:36:00,SystemResetWarning,0825.9,5.00,000.00,018.2,017.4,000.0,026.9,020.0,13.8,0000.0,0003.43,0002.07,0001.41
2024-03-28 12:37:00,SystemResetWarning,0825.9,5.00,000.00,018.2,017.4,000.0,026.9,020.0,13.9,0000.0,0003.48,0002.07,0001.40
2024-03-28 12:38:00,SystemResetWarning,0825.9,5.00,000.00,018.2,017.4,000.0,026.9,020.0,13.7,0000.0,0003.46,0002.05,0001.39
2024-03-28 12:39:00,SystemResetWarning,0825.9,5.00,000.00,018.2,017.4,000.0,026.9,020.0,13.6,0000.0,0003.31,0002.00,0001.39
2024-03-28 12:40:00,SystemResetWarning,0825.8,5.00,000.00,018.2,017.4,000.0,026.9,020.0,13.8,0000.0,0003.16,0001.95,0001.38
2024-03-28 12:41:00,SystemResetWarning,0825.9,5.00,000.00,018.2,017.4,000.0,026.9,020.0,13.8,0000.0,0003.02,0001.91,0001.38
2024-03-28 12:42:00,SystemResetWarning,0825.9,5.00,000.00,018.2,017.4,000.0,026.9,020.0,13.8,0000.0,0002.88,0001.86,0001.39
2024-03-28 12:43:00,SystemResetWarning,0825.9,5.00,000.00,018.2,017.4,000.0,026.9,020.0,13.8,0000.0,0002.83,0001.86,0001.41
2024-03-28 12:44:00,SystemResetWarning,0825.9,5.02,000.00,018.3,017.9,000.0,027.0,020.3,13.9,0000.0,0002.92,0001.88,0001.42
2024-03-28 12:45:00,SystemResetWarning,0826.0,5.00,000.00,018.5,018.7,000.0,027.1,020.7,13.7,0000.0,0002.96,0001.89,0001.42
2024-03-28 12:46:00,SystemResetWarning,0826.0,5.00,000.00,018.6,018.7,000.0,027.0,020.8,13.4,0000.0,0003.06,0001.92,0001.43
2024-03-28 12:47:00,SystemResetWarning,0826.0,4.99,000.00,018.6,018.6,000.0,027.0,020.6,13.3,0000.0,0003.00,0001.90,0001.43
2024-03-28 12:48:00,SystemResetWarning,0826.0,4.99,000.00,018.6,018.5,000.0,027.0,020.5,13.4,0000.0,0003.11,0001.90,0001.44
2024-03-28 12:49:00,SystemResetWarning,0826.0,5.01,000.00,018.6,018.3,000.0,027.0,020.4,13.5,0000.0,0003.23,0001.93,0001.45
2024-03-28 12:50:00,SystemResetWarning,0826.0,5.00,000.00,018.6,018.2,000.0,027.0,020.4,13.6,0000.0,0003.39,0001.95,0001.46
2024-03-28 12:51:00,SystemResetWarning,0826.0,5.00,000.00,018.6,018.1,000.0,027.0,020.3,13.5,0000.0,0003.58,0002.00,0001.48
2024-03-28 12:52:00,SystemResetWarning,0826.1,4.99,000.00,018.6,018.1,000.0,027.0,020.3,13.3,0000.0,0003.76,0002.08,0001.49
2024-03-28 12:53:00,SystemResetWarning,0826.0,5.00,000.00,018.6,018.0,000.0,027.0,020.3,13.2,0000.0,0004.04,0002.15,0001.50
2024-03-28 12:54:00,SystemResetWarning,0826.1,4.99,000.00,018.5,017.9,000.0,027.0,020.2,13.1,0000.0,0004.50,0002.15,0001.49
2024-03-28 12:55:00,SystemResetWarning,0826.1,5.00,000.00,018.5,017.9,000.0,027.0,020.2,13.1,0000.0,0004.55,0002.17,0001.48
2024-03-28 12:56:00,SystemResetWarning,0826.0,5.01,000.00,018.5,017.8,000.0,027.0,020.2,13.0,0000.0,0004.66,0002.19,0001.48
2024-03-28 12:57:00,SystemResetWarning,0826.1,5.01,000.00,018.5,017.8,000.0,027.0,020.1,12.9,0000.0,0005.68,0002.21,0001.46
2024-03-28 12:58:00,SystemResetWarning,0826.1,5.00,000.00,018.4,017.7,000.0,027.0,020.1,12.9,0000.0,0006.03,0002.22,0001.46
2024-03-28 12:59:00,SystemResetWarning,0826.1,5.00,000.00,018.4,017.7,000.0,027.0,020.1,12.9,0000.0,0005.95,0002.21,0001.46
